{"data":{"norad_id":58025,"intl_designator":"2023-155K","name":"PVCC","alt_names":[],"object_type":"PAYLOAD","status":"ACTIVE","operator":null,"country":"BEL","launch_date":"2023-10-09","launch_site_code":"FRGUI","launch_vehicle":null,"mission":null,"orbit_class":"UNKNOWN","rcs_meters":null,"size_class":null,"mass_kg":null,"dimensions":null,"purposes":[],"wikipedia_slug":null,"has_3d_model":false,"image_url":null,"decayed_at":null,"tle_current":{"epoch":"2026-09-21T22:26:56.560704Z","epoch_age_seconds":109825,"freshness":"FRESH","line1":"1 58025U 23155K   26264.93537686  .00003639  00000+0  18807-3 0  9990","line2":"2 58025  97.5633 341.2392 0005000 142.5255 217.6328 15.16913484162648","mean_motion":15.16913484,"eccentricity":0.0005,"inclination_deg":97.5633,"raan_deg":341.2392,"arg_perigee_deg":142.5255,"mean_anomaly_deg":217.6328,"bstar":0.00018807,"rev_number":16264,"period_min":94.929606413862,"perigee_km":511.728837511,"apogee_km":518.62215000475,"semimajor_km":6893.3124937579,"source":"CELESTRAK","updated_at":"2026-09-22T09:00:26.442567Z"}}}